Year,Month,Day,Hour,Minute,Value (Times are PST for temperature in C)
2015,12,09,09,27,9.50
2015,12,09,09,28,9.50
2015,12,09,09,29,9.50
2015,12,09,09,30,9.60
2015,12,09,09,31,9.60
2015,12,09,09,32,9.70
2015,12,09,09,33,9.70
2015,12,09,09,34,9.70
2015,12,09,09,35,9.70
2015,12,09,09,36,9.70
2015,12,09,09,37,9.70
2015,12,09,09,38,9.70
2015,12,09,09,39,9.70
2015,12,09,09,40,9.80
2015,12,09,09,41,9.80
2015,12,09,09,42,9.80
2015,12,09,09,43,9.80
2015,12,09,09,44,9.90
2015,12,09,09,45,9.90
2015,12,09,09,46,9.90
2015,12,09,09,47,9.90
2015,12,09,09,48,9.90
2015,12,09,09,49,9.90
2015,12,09,09,50,10.00
2015,12,09,09,51,10.10
2015,12,09,09,52,10.10
2015,12,09,09,53,10.10
2015,12,09,09,54,10.10
2015,12,09,09,55,10.10
2015,12,09,09,56,10.10
2015,12,09,09,57,10.10
2015,12,09,09,58,10.10
2015,12,09,09,59,10.10
2015,12,09,10,00,10.10
2015,12,09,10,01,10.10
2015,12,09,10,02,10.10
2015,12,09,10,03,10.10
2015,12,09,10,04,10.10
2015,12,09,10,05,10.20
2015,12,09,10,06,10.20
2015,12,09,10,07,10.20
2015,12,09,10,08,10.30
2015,12,09,10,09,10.30
2015,12,09,10,10,10.30
2015,12,09,10,11,10.30
2015,12,09,10,12,10.40
2015,12,09,10,13,10.40
2015,12,09,10,14,10.40
2015,12,09,10,15,10.40
2015,12,09,10,16,10.40
2015,12,09,10,17,10.40
2015,12,09,10,18,10.40
2015,12,09,10,19,10.50
2015,12,09,10,20,10.60
2015,12,09,10,21,10.50
2015,12,09,10,22,10.40
2015,12,09,10,23,10.40
2015,12,09,10,24,10.40
2015,12,09,10,25,10.40
2015,12,09,10,26,10.40
2015,12,09,10,27,10.40
2015,12,09,10,28,10.40
2015,12,09,10,29,10.40
2015,12,09,10,30,10.40
2015,12,09,10,31,10.40
2015,12,09,10,32,10.40
2015,12,09,10,33,10.40
2015,12,09,10,34,10.40
2015,12,09,10,35,10.40
2015,12,09,10,36,10.60
2015,12,09,10,37,10.60
2015,12,09,10,38,10.60
2015,12,09,10,39,10.60
2015,12,09,10,40,10.60
2015,12,09,10,41,10.60
2015,12,09,10,42,10.60
2015,12,09,10,43,10.60
2015,12,09,10,44,10.60
2015,12,09,10,45,10.60
2015,12,09,10,46,10.60
2015,12,09,10,47,10.70
2015,12,09,10,48,10.70
2015,12,09,10,49,10.70
2015,12,09,10,50,10.70
2015,12,09,10,51,10.70
2015,12,09,10,52,10.70
2015,12,09,10,53,10.80
2015,12,09,10,54,10.80
2015,12,09,10,55,10.80
2015,12,09,10,56,10.80
2015,12,09,10,57,10.90
2015,12,09,10,58,10.90
2015,12,09,10,59,10.90
2015,12,09,11,00,10.90
2015,12,09,11,01,10.80
2015,12,09,11,02,10.80
2015,12,09,11,03,10.80
2015,12,09,11,04,10.70
2015,12,09,11,05,10.60
2015,12,09,11,06,10.60
2015,12,09,11,07,10.60
2015,12,09,11,08,10.60
2015,12,09,11,09,10.60
2015,12,09,11,10,10.60
2015,12,09,11,11,10.60
2015,12,09,11,12,10.60
2015,12,09,11,13,10.60
2015,12,09,11,14,10.70
2015,12,09,11,15,10.70
2015,12,09,11,16,10.70
2015,12,09,11,17,10.70
2015,12,09,11,18,10.70
2015,12,09,11,19,10.80
2015,12,09,11,20,10.80
2015,12,09,11,21,10.80
2015,12,09,11,22,10.90
2015,12,09,11,23,10.90
2015,12,09,11,24,10.90
2015,12,09,11,25,10.90
2015,12,09,11,26,10.90
2015,12,09,11,27,10.90
2015,12,09,11,28,10.90
2015,12,09,11,29,10.90
2015,12,09,11,30,11.10
2015,12,09,11,31,11.10
2015,12,09,11,32,11.10
2015,12,09,11,33,11.10
2015,12,09,11,34,11.10
2015,12,09,11,35,11.10
2015,12,09,11,36,11.10
2015,12,09,11,37,11.10
2015,12,09,11,38,11.10
2015,12,09,11,39,11.10
2015,12,09,11,40,11.10
2015,12,09,11,41,11.10
2015,12,09,11,42,11.10
2015,12,09,11,43,11.10
2015,12,09,11,44,11.10
2015,12,09,11,45,11.10
2015,12,09,11,46,11.10
2015,12,09,11,47,11.20
2015,12,09,11,48,11.20
2015,12,09,11,49,11.20
2015,12,09,11,50,11.20
2015,12,09,11,51,11.30
2015,12,09,11,52,11.30
2015,12,09,11,53,11.20
2015,12,09,11,54,11.20
2015,12,09,11,55,11.20
2015,12,09,11,56,11.20
2015,12,09,11,57,11.20
2015,12,09,11,58,11.20
2015,12,09,11,59,11.20
2015,12,09,12,00,11.10
2015,12,09,12,01,11.10
2015,12,09,12,02,11.10
2015,12,09,12,03,11.10
2015,12,09,12,04,11.10
2015,12,09,12,05,11.10
2015,12,09,12,06,11.10
2015,12,09,12,07,11.10
2015,12,09,12,08,11.10
2015,12,09,12,09,11.10
2015,12,09,12,10,11.10
2015,12,09,12,11,11.10
2015,12,09,12,12,11.10
2015,12,09,12,13,11.00
2015,12,09,12,14,10.90
2015,12,09,12,15,10.90
2015,12,09,12,16,10.90
2015,12,09,12,17,10.90
2015,12,09,12,18,10.90
2015,12,09,12,19,10.90
2015,12,09,12,20,10.90
2015,12,09,12,21,10.90
2015,12,09,12,22,10.80
2015,12,09,12,23,10.80
2015,12,09,12,24,10.80
2015,12,09,12,25,10.70
2015,12,09,12,26,10.70
2015,12,09,12,27,10.70
2015,12,09,12,28,10.70
2015,12,09,12,29,10.70
2015,12,09,12,30,10.70
2015,12,09,12,31,10.70
2015,12,09,12,32,10.70
2015,12,09,12,33,10.80
2015,12,09,12,34,10.80
2015,12,09,12,35,10.80
2015,12,09,12,36,10.80
2015,12,09,12,37,10.80
2015,12,09,12,38,10.90
2015,12,09,12,39,10.90
2015,12,09,12,40,10.90
2015,12,09,12,41,10.90
2015,12,09,12,42,10.90
2015,12,09,12,43,11.00
2015,12,09,12,44,11.10
2015,12,09,12,45,11.10
2015,12,09,12,46,11.20
2015,12,09,12,47,11.20
2015,12,09,12,48,11.30
2015,12,09,12,49,11.30
2015,12,09,12,50,11.40
2015,12,09,12,51,11.40
2015,12,09,12,52,11.40
2015,12,09,12,53,11.40
2015,12,09,12,54,11.30
2015,12,09,12,55,11.20
2015,12,09,12,56,11.10
2015,12,09,12,57,11.10
2015,12,09,12,58,11.00
2015,12,09,12,59,10.90
2015,12,09,13,00,10.90
2015,12,09,13,01,10.90
2015,12,09,13,02,10.90
2015,12,09,13,03,10.90
2015,12,09,13,04,10.90
2015,12,09,13,05,10.80
2015,12,09,13,06,10.70
2015,12,09,13,07,10.60
2015,12,09,13,08,10.40
2015,12,09,13,09,10.20
2015,12,09,13,10,9.90
2015,12,09,13,11,9.70
2015,12,09,13,12,9.50
2015,12,09,13,13,9.40
2015,12,09,13,14,9.30
2015,12,09,13,15,9.20
2015,12,09,13,16,9.20
2015,12,09,13,17,9.20
2015,12,09,13,18,9.20
2015,12,09,13,19,9.20
2015,12,09,13,20,9.20
2015,12,09,13,21,9.20
2015,12,09,13,22,9.20
2015,12,09,13,23,9.20
2015,12,09,13,24,9.20
2015,12,09,13,25,9.20
2015,12,09,13,26,9.20
2015,12,09,13,42,8.70
2015,12,09,13,43,8.70
2015,12,09,13,44,8.70
2015,12,09,13,45,8.80
2015,12,09,13,46,8.80
2015,12,09,13,47,8.80
2015,12,09,13,48,8.80
2015,12,09,13,49,8.80
2015,12,09,13,50,8.80
2015,12,09,13,51,8.80
2015,12,09,13,52,8.90
2015,12,09,13,53,8.90
2015,12,09,13,54,8.90
2015,12,09,13,55,9.00
2015,12,09,13,56,9.00
2015,12,09,13,57,9.00
2015,12,09,13,58,9.00
2015,12,09,13,59,9.10
2015,12,09,14,00,9.10
2015,12,09,14,01,9.10
2015,12,09,14,02,9.10
2015,12,09,14,03,9.20
2015,12,09,14,04,9.20
2015,12,09,14,05,9.10
2015,12,09,14,06,9.00
2015,12,09,14,07,9.00
2015,12,09,14,08,8.90
2015,12,09,14,09,8.90
2015,12,09,14,10,8.90
2015,12,09,14,11,8.80
2015,12,09,14,12,8.80
2015,12,09,14,13,8.80
2015,12,09,14,14,8.80
2015,12,09,14,15,8.80
2015,12,09,14,16,8.80
2015,12,09,14,17,8.80
2015,12,09,14,18,8.70
2015,12,09,14,19,8.70
2015,12,09,14,20,8.70
2015,12,09,14,21,8.70
2015,12,09,14,22,8.70
2015,12,09,14,23,8.70
2015,12,09,14,24,8.80
2015,12,09,14,25,8.80
2015,12,09,14,26,8.90
2015,12,09,14,27,8.90
2015,12,09,14,28,9.00
2015,12,09,14,29,9.00
2015,12,09,14,30,9.00
2015,12,09,14,31,9.00
2015,12,09,14,32,9.10
2015,12,09,14,33,9.20
2015,12,09,14,34,9.20
2015,12,09,14,35,9.30
2015,12,09,14,36,9.30
2015,12,09,14,37,9.30
2015,12,09,14,38,9.30
2015,12,09,14,39,9.30
2015,12,09,14,40,9.30
2015,12,09,14,41,9.30
2015,12,09,14,42,9.30
2015,12,09,14,43,9.30
2015,12,09,14,44,9.30
2015,12,09,14,45,9.20
2015,12,09,14,46,9.20
2015,12,09,14,47,9.20
2015,12,09,14,48,9.20
2015,12,09,14,49,9.20
2015,12,09,14,50,9.20
2015,12,09,14,51,9.20
2015,12,09,14,52,9.20
2015,12,09,14,53,9.20
2015,12,09,14,54,9.20
2015,12,09,14,55,9.20
2015,12,09,14,56,9.20
2015,12,09,14,57,9.20
2015,12,09,14,58,9.20
2015,12,09,14,59,9.20
2015,12,09,15,00,9.20
2015,12,09,15,01,9.20
2015,12,09,15,02,9.20
2015,12,09,15,03,9.20
2015,12,09,15,04,9.20
2015,12,09,15,05,9.20
2015,12,09,15,06,9.20
2015,12,09,15,07,9.20
2015,12,09,15,08,9.20
2015,12,09,15,09,9.20
2015,12,09,15,10,9.20
2015,12,09,15,11,9.20
2015,12,09,15,12,9.20
2015,12,09,15,13,9.20
2015,12,09,15,14,9.10
2015,12,09,15,15,9.10
2015,12,09,15,16,9.10
2015,12,09,15,17,9.10
2015,12,09,15,18,9.10
2015,12,09,15,19,9.10
2015,12,09,15,20,9.10
2015,12,09,15,21,9.10
2015,12,09,15,22,9.10
2015,12,09,15,23,9.10
2015,12,09,15,24,9.10
2015,12,09,15,25,9.10
2015,12,09,15,26,9.10
2015,12,09,15,27,9.10
2015,12,09,15,28,9.10
2015,12,09,15,29,9.10
2015,12,09,15,30,9.00
2015,12,09,15,31,9.00
2015,12,09,15,32,9.00
2015,12,09,15,33,9.00
2015,12,09,15,34,9.00
2015,12,09,15,35,9.00
2015,12,09,15,36,9.00
2015,12,09,15,37,9.00
2015,12,09,15,38,9.00
2015,12,09,15,39,9.00
2015,12,09,15,40,9.00
